This is the latest recevied weather packets stored in our database for station/object K9MWD. If no packets are shown the sender has not sent any weather packets the latest 10 day(s).
| Time | Temp. | Humidity | Pressure | Rain* | Wind** | Luminosity | Snow |
|---|---|---|---|---|---|---|---|
| 1777845080 | 27.78° C | 34% | 1017.1 hPa | 0 mm | - | 519 W/m² | - |
| 1777844780 | 27.78° C | 31% | 1017.3 hPa | 0 mm | - | 547 W/m² | - |
| 1777844475 | 27.78° C | 33% | 1017.2 hPa | 0 mm | - | 564 W/m² | - |
| 1777844174 | 27.78° C | 33% | 1017.4 hPa | 0 mm | - | 201 W/m² | - |
| 1777843870 | 27.22° C | 34% | 1017.6 hPa | 0 mm | - | 623 W/m² | - |
| 1777843568 | 27.22° C | 34% | 1017.5 hPa | 0 mm | - | 615 W/m² | - |
| 1777843265 | 27.78° C | 34% | 1017.5 hPa | 0 mm | - | 636 W/m² | - |
| 1777842962 | 27.78° C | 34% | 1017.5 hPa | 0 mm | - | 639 W/m² | - |
| 1777842657 | 28.33° C | 35% | 1017.9 hPa | 0 mm | - | 657 W/m² | - |
| 1777842354 | 27.78° C | 34% | 1017.8 hPa | 0 mm | - | 664 W/m² | - |
| 1777842050 | 27.22° C | 34% | 1017.8 hPa | 0 mm | - | 674 W/m² | - |
| 1777841747 | 27.22° C | 35% | 1017.9 hPa | 0 mm | - | 684 W/m² | - |
| 1777841443 | 27.22° C | 37% | 1017.9 hPa | 0 mm | - | 717 W/m² | - |
| 1777841140 | 27.22° C | 36% | 1018.1 hPa | 0 mm | - | 509 W/m² | - |
| 1777840837 | 27.22° C | 36% | 1018.3 hPa | 0 mm | - | 743 W/m² | - |
| 1777840535 | 27.78° C | 35% | 1018.4 hPa | 0 mm | - | 756 W/m² | - |
| 1777840232 | 27.22° C | 33% | 1018.6 hPa | 0 mm | - | 767 W/m² | - |
| 1777839929 | 27.22° C | 34% | 1018.6 hPa | 0 mm | - | 768 W/m² | - |
| 1777839627 | 27.78° C | 32% | 1018.6 hPa | 0 mm | - | 784 W/m² | - |
| 1777839325 | 27.22° C | 33% | 1018.8 hPa | 0 mm | - | 807 W/m² | - |
| 1777839022 | 26.67° C | 35% | 1018.9 hPa | 0 mm | - | 815 W/m² | - |
| 1777838718 | 27.22° C | 36% | 1018.8 hPa | 0 mm | - | 823 W/m² | - |
| 1777838415 | 26.67° C | 36% | 1018.9 hPa | 0 mm | - | 837 W/m² | - |
| 1777838112 | 27.78° C | 36% | 1018.9 hPa | 0 mm | - | 841 W/m² | - |
| 1777837809 | 27.22° C | 36% | 1019.3 hPa | 0 mm | - | 883 W/m² | - |
* Rain latest hour (hover to see other rain measurements)
** Current wind speed in m/s (hover to see current wind gust speed)